When you browse on this site, cookies collect data to enhance your experience and personalize the content and advertising you see.
Visit our Privacy Policy to learn more. By continuing to use the site, you agree to this use of cookies and data.
  • In Romania
  • List of Countries
  • For 7 days
  • Water Temperature
  • Weather Map
  • Weather Widgets
  • user-avatar
    Login

    Hourly Weather Dalat

    Today, 8 December, Sunday

    Time Temperature Precipitation Wind Pressure Humidity
    00:00 +12°C° 0 mm 2 mps 653 mmHg 94%
    01:00 +12°C° 0 mm 2 mps 653 mmHg 94%
    02:00 +12°C° 0 mm 2 mps 653 mmHg 94%
    03:00 +12°C° 0 mm 2 mps 653 mmHg 94%
    04:00 +12°C° 0 mm 2 mps 652 mmHg 94%
    05:00 +13°C° 0 mm 2 mps 653 mmHg 92%
    06:00 +13°C° 0 mm 2 mps 653 mmHg 90%
    07:00 +14°C° 0 mm 2 mps 654 mmHg 87%
    08:00 +16°C° 0 mm 2 mps 655 mmHg 78%
    09:00 +18°C° 0 mm 2 mps 656 mmHg 69%
    10:00 +21°C° 0 mm 2 mps 656 mmHg 59%
    11:00 +21°C° 0 mm 2 mps 656 mmHg 58%
    12:00 +23°C° 0 mm 2 mps 656 mmHg 56%
    13:00 +24°C° 0 mm 2 mps 655 mmHg 54%
    14:00 +23°C° 0 mm 2 mps 655 mmHg 59%
    15:00 +21°C° 0 mm 2 mps 654 mmHg 64%
    16:00 +20°C° 0 mm 2 mps 654 mmHg 69%
    17:00 +18°C° 0 mm 2 mps 654 mmHg 77%
    18:00 +16°C° 0 mm 2 mps 654 mmHg 85%
    19:00 +14°C° 0 mm 1 mps 653 mmHg 93%
    20:00 +13°C° 0 mm 1 mps 654 mmHg 93%
    21:00 +13°C° 0 mm 1 mps 654 mmHg 93%
    22:00 +12°C° 0 mm 1 mps 654 mmHg 93%
    23:00 +12°C° 0 mm 1 mps 654 mmHg 93%

    Tomorrow, 9 December, Monday

    Time Temperature Precipitation Wind Pressure Humidity
    00:00 +12°C° 0 mm 1 mps 653 mmHg 93%
    01:00 +12°C° 0 mm 1 mps 653 mmHg 93%
    02:00 +12°C° 0 mm 1 mps 653 mmHg 93%
    03:00 +12°C° 0 mm 1 mps 653 mmHg 93%
    04:00 +12°C° 0 mm 1 mps 652 mmHg 93%
    05:00 +13°C° 0 mm 1 mps 653 mmHg 91%
    06:00 +13°C° 0 mm 1 mps 653 mmHg 89%
    07:00 +14°C° 0 mm 1 mps 654 mmHg 87%
    08:00 +16°C° 0 mm 1 mps 655 mmHg 78%
    09:00 +19°C° 0 mm 2 mps 655 mmHg 69%
    10:00 +21°C° 0 mm 2 mps 656 mmHg 60%
    11:00 +23°C° 0 mm 2 mps 656 mmHg 58%
    12:00 +24°C° 0 mm 2 mps 655 mmHg 56%
    13:00 +24°C° 0 mm 2 mps 655 mmHg 54%
    14:00 +23°C° 0 mm 2 mps 654 mmHg 60%
    15:00 +21°C° 0 mm 2 mps 654 mmHg 66%
    16:00 +21°C° 0 mm 1 mps 653 mmHg 71%
    17:00 +19°C° 0 mm 1 mps 653 mmHg 79%
    18:00 +16°C° 0 mm 1 mps 653 mmHg 87%
    19:00 +14°C° 0 mm 1 mps 653 mmHg 95%
    20:00 +14°C° 0 mm 1 mps 653 mmHg 95%
    21:00 +13°C° 0 mm 1 mps 653 mmHg 95%
    22:00 +13°C° 0 mm 1 mps 653 mmHg 95%
    23:00 +13°C° 0 mm 1 mps 652 mmHg 94%

    Day after tomorrow, 10 December, Tuesday

    Time Temperature Precipitation Wind Pressure Humidity
    00:00 +12°C° 0 mm 1 mps 652 mmHg 94%
    01:00 +12°C° 0 mm 1 mps 652 mmHg 93%
    02:00 +12°C° 0 mm 1 mps 651 mmHg 92%
    03:00 +12°C° 0 mm 1 mps 651 mmHg 91%
    04:00 +12°C° 0 mm 1 mps 651 mmHg 90%
    05:00 +13°C° 0 mm 1 mps 651 mmHg 87%
    06:00 +14°C° 0 mm 1 mps 652 mmHg 83%
    07:00 +15°C° 0 mm 1 mps 653 mmHg 79%
    08:00 +18°C° 0 mm 1 mps 654 mmHg 70%
    09:00 +21°C° 0 mm 1 mps 655 mmHg 60%
    10:00 +24°C° 0 mm 1 mps 655 mmHg 51%
    11:00 +24°C° 0 mm 1 mps 655 mmHg 50%
    12:00 +25°C° 0 mm 1 mps 655 mmHg 49%
    13:00 +26°C° 0 mm 1 mps 654 mmHg 49%
    14:00 +24°C° 0 mm 1 mps 653 mmHg 56%
    15:00 +23°C° 0 mm 1 mps 653 mmHg 63%
    16:00 +22°C° 0 mm 1 mps 652 mmHg 70%
    17:00 +20°C° 0 mm 1 mps 652 mmHg 78%
    18:00 +19°C° 0 mm 1 mps 652 mmHg 86%
    19:00 +16°C° 0 mm 1 mps 652 mmHg 95%
    20:00 +16°C° 0 mm 1 mps 652 mmHg 95%
    21:00 +15°C° 0 mm 1 mps 652 mmHg 96%
    22:00 +15°C° 0 mm 1 mps 652 mmHg 96%
    23:00 +14°C° 0 mm 1 mps 652 mmHg 96%

    11 December, Wednesday

    Time Temperature Precipitation Wind Pressure Humidity
    00:00 +14°C° 0 mm 1 mps 652 mmHg 96%
    01:00 +14°C° 0 mm 1 mps 651 mmHg 95%
    02:00 +13°C° 0 mm 1 mps 651 mmHg 94%
    03:00 +13°C° 0 mm 1 mps 651 mmHg 92%
    04:00 +13°C° 0 mm 1 mps 651 mmHg 91%
    05:00 +14°C° 0 mm 1 mps 651 mmHg 88%
    06:00 +14°C° 0 mm 1 mps 652 mmHg 85%
    07:00 +15°C° 0 mm 1 mps 652 mmHg 83%
    08:00 +19°C° 0 mm 1 mps 653 mmHg 73%
    09:00 +21°C° 0 mm 1 mps 654 mmHg 63%
    10:00 +24°C° 0 mm 1 mps 655 mmHg 54%
    11:00 +24°C° 0 mm 1 mps 655 mmHg 53%
    12:00 +25°C° 0 mm 1 mps 654 mmHg 53%
    13:00 +25°C° 0 mm 1 mps 654 mmHg 53%
    14:00 +24°C° 0 mm 1 mps 653 mmHg 61%
    15:00 +22°C° 0 mm 1 mps 653 mmHg 70%
    16:00 +21°C° 0 mm 1 mps 652 mmHg 78%
    17:00 +20°C° 0 mm 1 mps 652 mmHg 83%
    18:00 +18°C° 0 mm 1 mps 652 mmHg 88%
    19:00 +16°C° 0 mm 1 mps 652 mmHg 93%
    20:00 +16°C° 0 mm 1 mps 652 mmHg 94%
    21:00 +15°C° 0 mm 1 mps 652 mmHg 94%
    22:00 +15°C° 0 mm 1 mps 652 mmHg 95%
    23:00 +14°C° 0 mm 1 mps 652 mmHg 95%

    12 December, Thursday

    Time Temperature Precipitation Wind Pressure Humidity
    00:00 +14°C° 0 mm 1 mps 652 mmHg 95%
    01:00 +14°C° 0 mm 1 mps 652 mmHg 95%
    02:00 +14°C° 0 mm 1 mps 652 mmHg 95%
    03:00 +14°C° 0 mm 1 mps 651 mmHg 95%
    04:00 +14°C° 0 mm 1 mps 651 mmHg 96%
    05:00 +15°C° 0 mm 1 mps 652 mmHg 94%
    06:00 +15°C° 0 mm 1 mps 652 mmHg 92%
    07:00 +16°C° 0 mm 1 mps 653 mmHg 90%
    08:00 +19°C° 0 mm 1 mps 654 mmHg 82%
    09:00 +21°C° 0 mm 1 mps 654 mmHg 73%
    10:00 +23°C° 0 mm 2 mps 655 mmHg 65%
    11:00 +24°C° 0 mm 2 mps 655 mmHg 62%
    12:00 +24°C° 0 mm 2 mps 654 mmHg 60%
    13:00 +25°C° 0 mm 2 mps 654 mmHg 58%
    14:00 +24°C° 0.1 mm 1 mps 654 mmHg 65%
    15:00 +23°C° 0.1 mm 1 mps 653 mmHg 72%
    16:00 +21°C° 0.1 mm 1 mps 653 mmHg 79%
    17:00 +20°C° 0 mm 1 mps 653 mmHg 85%
    18:00 +18°C° 0 mm 1 mps 653 mmHg 90%
    19:00 +16°C° 0 mm 1 mps 653 mmHg 96%
    20:00 +15°C° 0 mm 1 mps 653 mmHg 96%
    21:00 +15°C° 0 mm 1 mps 653 mmHg 96%
    22:00 +14°C° 0 mm 1 mps 653 mmHg 96%
    23:00 +14°C° 0 mm 1 mps 653 mmHg 94%

    13 December, Friday

    Time Temperature Precipitation Wind Pressure Humidity
    00:00 +13°C° 0 mm 1 mps 652 mmHg 92%
    01:00 +13°C° 0 mm 1 mps 652 mmHg 90%
    02:00 +13°C° 0 mm 1 mps 652 mmHg 88%
    03:00 +13°C° 0 mm 1 mps 651 mmHg 86%
    04:00 +13°C° 0 mm 1 mps 651 mmHg 84%
    05:00 +14°C° 0 mm 1 mps 652 mmHg 80%
    06:00 +14°C° 0 mm 1 mps 652 mmHg 76%
    07:00 +15°C° 0 mm 1 mps 653 mmHg 72%
    08:00 +18°C° 0 mm 2 mps 654 mmHg 68%
    09:00 +20°C° 0 mm 2 mps 654 mmHg 63%
    10:00 +23°C° 0 mm 2 mps 655 mmHg 59%
    11:00 +24°C° 0 mm 2 mps 655 mmHg 57%
    12:00 +25°C° 0 mm 2 mps 654 mmHg 56%
    13:00 +25°C° 0 mm 3 mps 654 mmHg 54%
    14:00 +25°C° 0 mm 2 mps 653 mmHg 58%
    15:00 +24°C° 0 mm 2 mps 653 mmHg 62%
    16:00 +23°C° 0 mm 2 mps 652 mmHg 66%
    17:00 +20°C° 0 mm 2 mps 652 mmHg 76%
    18:00 +19°C° 0 mm 1 mps 652 mmHg 85%
    19:00 +15°C° 0 mm 1 mps 652 mmHg 95%
    20:00 +15°C° 0 mm 1 mps 652 mmHg 95%
    21:00 +15°C° 0 mm 1 mps 652 mmHg 95%
    22:00 +14°C° 0 mm 1 mps 653 mmHg 96%
    23:00 +15°C° 0 mm 1 mps 652 mmHg 96%
    Show more